Location: Castle Hill Houses
(40.8186°N, 73.8497°W)
Time: 13:56:03
(UTC+00:00)

Lacrosse 5 rocket - Pass Details

Date: 26 January 2020
Orbit: 465 x 632 km, 57.0° (Epoch: 16 February)

Event Time Altitude Azimuth Distance (km) Brightness Sun altitude
Exits shadow 10:50:31 - 339° (NNW) 2,126 4.0 -15.3°
Reaches altitude 10° 10:51:06 10° 345° (NNW) 1,989 3.9 -15.2°
Maximum altitude 10:53:42 15° 20° (NNE) 1,672 3.9 -14.8°
Drops below altitude 10° 10:56:14 10° 55° (NE) 1,944 4.7 -14.3°
Sets 10:59:23 0° 79° (E) 2,809 6.2 -13.7°
